Regional Weather Roundup
Issued by NWS

Current Version | Previous Version | Text Only | Print | Product List | Glossary On
Versions: 1 2 3 4 5 6 7 8 9 10 11 12 13 14 15 16 17 18 19 20 21 22 23 24 25 26 27
000
ASUS44 KJAN 232010
RWRMS

MISSISSIPPI HOURLY WEATHER ROUNDUP
NATIONAL WEATHER SERVICE JACKSON MS
300 PM CDT FRI JUN 23 2017

NOTE: "FAIR: INDICATES FEW OR NO CLOUDS BELOW 12,000 FEET WITH NO
SIGNIFICANT WEATHER AND/OR OBSTRUCTIONS TO VISIBILITY.

MSZ001>002-007>008-010>013-018>021-025>028-034>036-232100-
NORTHWEST MISSISSIPPI

CITY           SKY/WX    TMP DP  RH WIND       PRES   REMARKS
BATESVILLE     CLOUDY    79  74  85 SW8       29.82R
CLARKSDALE       N/A     82  81  94 SW14      29.81S HX  95
CLEVELAND      MOCLDY    81  81 100 SW12G18   29.82F HX  92
GREENWOOD      CLOUDY    84  75  74 SW14G24   29.83F HX  92
GREENVILLE     MOSUNNY   82  74  76 SW15      29.82F
OLIVE BRANCH   CLOUDY   N/A N/A N/A SW9       29.78R
OXFORD         PTSUNNY   75  73  94 SW8       29.84S
TUNICA           N/A     81  77  89 SW10      29.80S
WINONA         CLOUDY    78  77  97 SW6       29.84F
$$

MSZ003>006-009-014>017-022>024-029>033-037>039-232100-
NORTHEAST MISSISSIPPI

CITY           SKY/WX    TMP DP  RH WIND       PRES   REMARKS
COLUMBUS AFB   LGT RAIN N/A N/A N/A SW10      29.86S
CORINTH        DRIZZLE   77  73  88 SW10G20   29.79S
GOLDN TRIANGLE LGT RAIN  75  70  83 SW12G21   29.83S FOG
STARKVILLE     RAIN      73  72  94 SW6       29.89S
TUPELO         CLOUDY    76  72  87 S10       29.83R
$$

MSZ040-058-232100-
CENTRAL MISSISSIPPI

CITY           SKY/WX    TMP DP  RH WIND       PRES   REMARKS
JACKSON INTL   CLOUDY    83  76  79 SW10      29.91R HX  91
JACKSON HAWKNS CLOUDY    83  75  77 W10       29.91R HX  90
MADISON        FAIR      81  75  83 SW10G20   29.90R
MERIDIAN KEY   TSTM      76  74  93 SW18G28   29.96R
MERIDIAN NAS   TSTM      76  71  85 W8        29.92R
RAYMOND        FAIR      81  77  89 MISG      29.90R
VICKSBURG VKS  CLEAR     81  75  83 SW6       29.86S
$$

MSZ059>079-232100-
SOUTH MISSISSIPPI

CITY           SKY/WX    TMP DP  RH WIND       PRES   REMARKS
COLUMBIA       FAIR      84  79  84 VRB5      29.93F HX  96
HATTIESBURG    MOSUNNY   88  77  69 S15G23    29.90F HX 100
LAUREL         MOCLDY    87  77  72 SW12G21   29.89S HX  99
MCCOMB         CLOUDY    83  77  82 SW8       29.91S HX  92
NATCHEZ        CLOUDY    80  75  84 SW10      29.90S
PINE BELT      CLOUDY    90  75  62 SW9       29.92R HX 100
$$

MSZ080>082-232100-
COASTAL MISSISSIPPI

CITY           SKY/WX    TMP DP  RH WIND       PRES   REMARKS
BAY ST LOUIS   PTSUNNY   88  79  74 S16G24    29.92F HX 102
BILOXI         SUNNY     86  79  80 S17       29.93F HX 100
PASCAGOULA     CLOUDY    85  76  74 S10       29.95F HX  94
GULFPORT       CLOUDY    85  78  80 S13G23    29.93F HX  96
$$

LAZ007>009-015>016-023>026-232100-
NORTHEAST LOUISIANA

CITY           SKY/WX    TMP DP  RH WIND       PRES   REMARKS
BASTROP        CLOUDY    84  80  86 SW13      29.86F HX  97
TALLULAH/VBURG CLOUDY    82  77  84 S7        29.88R HX  90
VIDALIA        FAIR      78  75  90 SW8       29.89S
$$




USA.gov is the U.S. government's official web portal to all federal, state and local government web resources and services.